• In Netherlands
  • List of Countries
  • For 7 days
  • Water Temperature
  • Satellite Maps
  • Weather Map
  • Weather Widgets
  • user-avatar
    Login

    Hourly Weather Salta

    Today, 22 January, Sunday

    Time Temperature Precipitation Wind Pressure Humidity
    00:00 +23°C° 0 mm 1 mps 653 mmHg 56%
    01:00 +22°C° 0 mm 1 mps 653 mmHg 58%
    02:00 +22°C° 0 mm 1 mps 652 mmHg 58%
    03:00 +21°C° 0 mm 1 mps 652 mmHg 59%
    04:00 +21°C° 0 mm 1 mps 652 mmHg 60%
    05:00 +21°C° 0 mm 1 mps 651 mmHg 61%
    06:00 +22°C° 0 mm 1 mps 652 mmHg 55%
    07:00 +24°C° 0 mm 1 mps 653 mmHg 49%
    08:00 +26°C° 0 mm 1 mps 653 mmHg 43%
    09:00 +28°C° 0 mm 1 mps 653 mmHg 40%
    10:00 +29°C° 0 mm 1 mps 653 mmHg 37%
    11:00 +30°C° 0 mm 2 mps 653 mmHg 35%
    12:00 +31°C° 0 mm 2 mps 653 mmHg 33%
    13:00 +31°C° 0 mm 3 mps 653 mmHg 31%
    14:00 +33°C° 0 mm 3 mps 652 mmHg 30%
    15:00 +33°C° 0 mm 3 mps 652 mmHg 31%
    16:00 +31°C° 0 mm 3 mps 651 mmHg 32%
    17:00 +31°C° 0 mm 3 mps 651 mmHg 33%
    18:00 +29°C° 0.1 mm 3 mps 651 mmHg 41%
    19:00 +27°C° 0.1 mm 2 mps 651 mmHg 48%
    20:00 +25°C° 0.1 mm 2 mps 651 mmHg 55%
    21:00 +24°C° 0.3 mm 2 mps 651 mmHg 60%
    22:00 +23°C° 0.3 mm 2 mps 651 mmHg 64%
    23:00 +21°C° 0.3 mm 2 mps 652 mmHg 69%

    Tomorrow, 23 January, Monday

    Time Temperature Precipitation Wind Pressure Humidity
    00:00 +21°C° 0.6 mm 2 mps 652 mmHg 73%
    01:00 +20°C° 0.6 mm 2 mps 651 mmHg 76%
    02:00 +19°C° 0.6 mm 2 mps 651 mmHg 80%
    03:00 +19°C° 0.9 mm 2 mps 651 mmHg 82%
    04:00 +19°C° 0.9 mm 2 mps 651 mmHg 84%
    05:00 +19°C° 0.9 mm 2 mps 651 mmHg 87%
    06:00 +19°C° 1.3 mm 2 mps 651 mmHg 85%
    07:00 +19°C° 1.3 mm 2 mps 651 mmHg 83%
    08:00 +19°C° 1.3 mm 2 mps 651 mmHg 82%
    09:00 +20°C° 1.1 mm 2 mps 652 mmHg 79%
    10:00 +21°C° 1.1 mm 2 mps 652 mmHg 75%
    11:00 +21°C° 1.1 mm 2 mps 652 mmHg 72%
    12:00 +21°C° 1 mm 2 mps 652 mmHg 71%
    13:00 +21°C° 1 mm 2 mps 652 mmHg 70%
    14:00 +23°C° 1 mm 2 mps 652 mmHg 69%
    15:00 +23°C° 0.5 mm 2 mps 651 mmHg 66%
    16:00 +23°C° 0.5 mm 2 mps 651 mmHg 63%
    17:00 +24°C° 0.5 mm 2 mps 651 mmHg 59%
    18:00 +23°C° 0.2 mm 2 mps 651 mmHg 63%
    19:00 +22°C° 0.2 mm 1 mps 651 mmHg 66%
    20:00 +21°C° 0.2 mm 1 mps 651 mmHg 69%
    21:00 +20°C° 0.1 mm 1 mps 651 mmHg 70%
    22:00 +20°C° 0.1 mm 1 mps 651 mmHg 70%
    23:00 +20°C° 0.1 mm 1 mps 651 mmHg 70%

    Day after tomorrow, 24 January, Tuesday

    Time Temperature Precipitation Wind Pressure Humidity
    00:00 +19°C° 0 mm 1 mps 651 mmHg 72%
    01:00 +19°C° 0 mm 1 mps 650 mmHg 73%
    02:00 +16°C° 0 mm 0 mps 649 mmHg 74%
    03:00 +16°C° 0 mm 0 mps 649 mmHg 74%
    04:00 +18°C° 0 mm 1 mps 649 mmHg 74%
    05:00 +16°C° 0 mm 1 mps 649 mmHg 74%
    06:00 +19°C° 0 mm 1 mps 650 mmHg 67%
    07:00 +22°C° 0 mm 1 mps 651 mmHg 60%
    08:00 +24°C° 0 mm 1 mps 652 mmHg 52%
    09:00 +25°C° 0 mm 1 mps 652 mmHg 48%
    10:00 +27°C° 0 mm 2 mps 653 mmHg 45%
    11:00 +28°C° 0 mm 2 mps 653 mmHg 41%
    12:00 +29°C° 0.1 mm 2 mps 653 mmHg 39%
    13:00 +30°C° 0.1 mm 3 mps 653 mmHg 37%
    14:00 +31°C° 0.1 mm 3 mps 652 mmHg 36%
    15:00 +30°C° 0.3 mm 3 mps 652 mmHg 38%
    16:00 +30°C° 0.3 mm 3 mps 652 mmHg 41%
    17:00 +29°C° 0.3 mm 3 mps 652 mmHg 44%
    18:00 +27°C° 0.8 mm 3 mps 652 mmHg 53%
    19:00 +25°C° 0.8 mm 2 mps 652 mmHg 62%
    20:00 +21°C° 0.8 mm 2 mps 652 mmHg 72%
    21:00 +21°C° 0.6 mm 2 mps 653 mmHg 72%
    22:00 +21°C° 0.6 mm 2 mps 654 mmHg 72%
    23:00 +20°C° 0.6 mm 2 mps 654 mmHg 73%

    25 January, Wednesday

    Time Temperature Precipitation Wind Pressure Humidity
    00:00 +20°C° 0.1 mm 2 mps 654 mmHg 70%
    01:00 +20°C° 0.1 mm 2 mps 654 mmHg 68%
    02:00 +20°C° 0.1 mm 2 mps 654 mmHg 66%
    03:00 +20°C° 0.1 mm 2 mps 654 mmHg 65%
    04:00 +19°C° 0.1 mm 2 mps 654 mmHg 63%
    05:00 +19°C° 0.1 mm 2 mps 654 mmHg 61%
    06:00 +21°C° 0 mm 2 mps 655 mmHg 57%
    07:00 +23°C° 0 mm 1 mps 656 mmHg 53%
    08:00 +24°C° 0 mm 1 mps 657 mmHg 49%
    09:00 +25°C° 0 mm 2 mps 657 mmHg 46%
    10:00 +26°C° 0 mm 2 mps 658 mmHg 42%
    11:00 +27°C° 0 mm 3 mps 658 mmHg 39%
    12:00 +28°C° 0 mm 3 mps 657 mmHg 38%
    13:00 +28°C° 0 mm 3 mps 657 mmHg 38%
    14:00 +29°C° 0 mm 3 mps 656 mmHg 37%
    15:00 +28°C° 0 mm 3 mps 656 mmHg 39%
    16:00 +28°C° 0 mm 3 mps 656 mmHg 40%
    17:00 +28°C° 0 mm 3 mps 655 mmHg 42%
    18:00 +26°C° 0 mm 2 mps 655 mmHg 49%
    19:00 +24°C° 0 mm 1 mps 655 mmHg 56%
    20:00 +22°C° 0 mm 1 mps 655 mmHg 63%
    21:00 +22°C° 0 mm 1 mps 655 mmHg 63%
    22:00 +21°C° 0 mm 1 mps 655 mmHg 64%
    23:00 +21°C° 0 mm 1 mps 656 mmHg 64%

    26 January, Thursday

    Time Temperature Precipitation Wind Pressure Humidity
    00:00 +20°C° 0 mm 1 mps 655 mmHg 65%
    01:00 +20°C° 0 mm 1 mps 655 mmHg 67%
    02:00 +19°C° 0 mm 1 mps 654 mmHg 68%
    03:00 +19°C° 0 mm 1 mps 654 mmHg 69%
    04:00 +18°C° 0 mm 1 mps 655 mmHg 71%
    05:00 +18°C° 0 mm 1 mps 655 mmHg 72%
    06:00 +20°C° 0 mm 1 mps 656 mmHg 64%
    07:00 +22°C° 0 mm 1 mps 657 mmHg 55%
    08:00 +24°C° 0 mm 1 mps 658 mmHg 47%
    09:00 +26°C° 0 mm 1 mps 658 mmHg 43%
    10:00 +27°C° 0 mm 2 mps 658 mmHg 39%
    11:00 +29°C° 0 mm 2 mps 658 mmHg 35%
    12:00 +29°C° 0 mm 3 mps 657 mmHg 33%
    13:00 +30°C° 0 mm 3 mps 657 mmHg 31%
    14:00 +31°C° 0 mm 3 mps 657 mmHg 30%
    15:00 +31°C° 0 mm 3 mps 656 mmHg 30%
    16:00 +31°C° 0 mm 3 mps 656 mmHg 31%
    17:00 +30°C° 0 mm 3 mps 655 mmHg 32%
    18:00 +28°C° 0 mm 3 mps 655 mmHg 39%
    19:00 +25°C° 0 mm 2 mps 655 mmHg 46%
    20:00 +22°C° 0 mm 1 mps 655 mmHg 54%
    21:00 +21°C° 0 mm 1 mps 655 mmHg 55%
    22:00 +21°C° 0 mm 1 mps 655 mmHg 57%
    23:00 +20°C° 0 mm 1 mps 656 mmHg 59%

    27 January, Friday

    Time Temperature Precipitation Wind Pressure Humidity
    00:00 +20°C° 0 mm 1 mps 655 mmHg 61%
    01:00 +19°C° 0 mm 1 mps 655 mmHg 63%
    02:00 +19°C° 0 mm 1 mps 654 mmHg 65%
    03:00 +18°C° 0 mm 1 mps 654 mmHg 65%
    04:00 +16°C° 0 mm 0 mps 654 mmHg 66%
    05:00 +15°C° 0 mm 0 mps 654 mmHg 66%
    06:00 +18°C° 0 mm 0 mps 655 mmHg 56%
    07:00 +22°C° 0 mm 1 mps 657 mmHg 47%
    08:00 +25°C° 0 mm 1 mps 658 mmHg 37%
    09:00 +26°C° 0 mm 1 mps 658 mmHg 34%
    10:00 +28°C° 0 mm 1 mps 658 mmHg 30%
    11:00 +30°C° 0 mm 2 mps 658 mmHg 27%
    12:00 +30°C° 0 mm 2 mps 657 mmHg 26%
    13:00 +31°C° 0 mm 3 mps 657 mmHg 24%
    14:00 +33°C° 0 mm 3 mps 656 mmHg 23%
    15:00 +33°C° 0 mm 3 mps 656 mmHg 24%
    16:00 +33°C° 0 mm 3 mps 655 mmHg 25%
    17:00 +31°C° 0 mm 3 mps 655 mmHg 25%
    18:00 +28°C° 0 mm 3 mps 654 mmHg 33%
    19:00 +25°C° 0 mm 2 mps 654 mmHg 40%
    20:00 +22°C° 0 mm 1 mps 654 mmHg 48%
    21:00 +21°C° 0 mm 1 mps 654 mmHg 50%
    22:00 +20°C° 0 mm 1 mps 654 mmHg 52%
    23:00 +20°C° 0 mm 1 mps 654 mmHg 55%
    Show more